| time (UTC) | temp F | wind direction | speed MPH | gust MPH | rain 1hr in | rain 24hr in | rain mn in | humidity % | barometer mb |
| 20260507113533 | 73 | 235 | 1.0 | 6.0 | 0.00 | 0.08 | 0.08 | 61 | 1014.2 |
| 20260507112547 | 73 | 345 | 1.0 | 3.0 | 0.00 | 0.08 | 0.08 | 60 | 1014.2 |
| 20260507111518 | 71 | 236 | 2.0 | 4.0 | 0.00 | 0.08 | 0.08 | 64 | 1014.4 |
| 20260507110612 | 71 | 25 | 2.0 | 4.0 | 0.00 | 0.08 | 0.08 | 58 | 1014.3 |
| 20260507105524 | 70 | 310 | 1.0 | 3.0 | 0.00 | 0.08 | 0.08 | 59 | 1014.5 |
| 20260507104537 | 70 | 274 | 1.0 | 4.0 | 0.00 | 0.08 | 0.08 | 61 | 1014.5 |
| 20260507103530 | 73 | 339 | 1.0 | 6.0 | 0.00 | 0.08 | 0.08 | 61 | 1014.6 |
| 20260507102524 | 70 | 299 | 1.0 | 3.0 | 0.00 | 0.08 | 0.08 | 64 | 1014.7 |
| 20260507101519 | 71 | 217 | 0.0 | 2.0 | 0.00 | 0.08 | 0.08 | 64 | 1014.8 |
| 20260507100528 | 69 | 227 | 1.0 | 6.0 | 0.00 | 0.08 | 0.08 | 65 | 1014.7 |
| 20260507095536 | 67 | 245 | 3.0 | 4.0 | 0.00 | 0.08 | 0.08 | 69 | 1014.9 |
| 20260507094522 | 68 | 203 | 2.0 | 6.0 | 0.00 | 0.08 | 0.08 | 69 | 1014.8 |
| 20260507093551 | 67 | 133 | 0.0 | 6.0 | 0.00 | 0.08 | 0.08 | 68 | 1014.8 |
| 20260507092523 | 66 | 148 | 2.0 | 6.0 | 0.00 | 0.08 | 0.08 | 71 | 1014.7 |
| 20260507091536 | 67 | 223 | 1.0 | 4.0 | 0.00 | 0.08 | 0.08 | 70 | 1014.8 |
| 20260507090531 | 66 | 171 | 2.0 | 6.0 | 0.00 | 0.08 | 0.08 | 73 | 1014.7 |
| 20260507085523 | 65 | 94 | 2.0 | 6.0 | 0.00 | 0.08 | 0.08 | 73 | 1014.9 |
| 20260507084517 | 66 | 135 | 2.0 | 6.0 | 0.00 | 0.08 | 0.08 | 73 | 1014.9 |
| 20260507083531 | 66 | 0.0 | 0.0 | 0.00 | 0.08 | 0.08 | 72 | 1014.9 | |
| 20260507082524 | 65 | 251 | 0.0 | 1.0 | 0.00 | 0.08 | 0.08 | 74 | 1015.0 |
| 20260507081519 | 65 | 78 | 1.0 | 4.0 | 0.00 | 0.08 | 0.08 | 75 | 1015.1 |
| 20260507080531 | 65 | 293 | 0.0 | 1.0 | 0.00 | 0.08 | 0.08 | 73 | 1015.1 |
| 20260507075524 | 63 | 138 | 1.0 | 4.0 | 0.00 | 0.08 | 0.08 | 76 | 1015.1 |
| 20260507073531 | 63 | 210 | 0.0 | 2.0 | 0.00 | 0.08 | 0.08 | 76 | 1015.2 |
| 20260507072524 | 60 | 245 | 3.0 | 4.0 | 0.00 | 0.08 | 0.08 | 80 | 1015.3 |
| 20260507071518 | 61 | 227 | 3.0 | 4.0 | 0.00 | 0.08 | 0.08 | 79 | 1015.2 |
| 20260507070612 | 59 | 233 | 2.0 | 4.0 | 0.00 | 0.08 | 0.08 | 84 | 1015.0 |
| 20260507065525 | 59 | 215 | 1.0 | 3.0 | 0.00 | 0.08 | 0.08 | 88 | 1014.9 |
| 20260507064519 | 57 | 0.0 | 0.0 | 0.00 | 0.08 | 0.08 | 96 | 1014.8 | |
| 20260507063615 | 58 | 0.0 | 0.0 | 0.00 | 0.08 | 0.08 | 98 | 1014.7 | |
| 20260507062547 | 58 | 211 | 0.0 | 2.0 | 0.00 | 0.08 | 0.08 | 99 | 1014.7 |
| 20260507061519 | 56 | 182 | 1.0 | 3.0 | 0.00 | 0.09 | 0.08 | 99 | 1014.7 |
| 20260507060533 | 56 | 0.0 | 0.0 | 0.00 | 0.09 | 0.08 | 99 | 1014.7 | |
| 20260507055526 | 55 | 0.0 | 0.0 | 0.00 | 0.11 | 0.08 | 99 | 1014.7 | |
| 20260507054540 | 54 | 0.0 | 0.0 | 0.00 | 0.11 | 0.08 | 99 | 1014.8 | |
| 20260507053534 | 54 | 0.0 | 0.0 | 0.00 | 0.12 | 0.08 | 99 | 1014.8 | |
| 20260507052527 | 54 | 0.0 | 0.0 | 0.00 | 0.12 | 0.08 | 99 | 1014.8 | |
| 20260507051540 | 54 | 0.0 | 0.0 | 0.00 | 0.12 | 0.08 | 99 | 1014.8 | |
| 20260507050554 | 54 | 256 | 0.0 | 1.0 | 0.00 | 0.12 | 0.08 | 99 | 1014.7 |
| 20260507045528 | 54 | 253 | 0.0 | 1.0 | 0.00 | 0.12 | 0.08 | 98 | 1014.8 |
| 20260507044541 | 54 | 0.0 | 0.0 | 0.00 | 0.12 | 0.08 | 98 | 1014.6 | |
| 20260507043535 | 53 | 0.0 | 0.0 | 0.00 | 0.12 | 0.08 | 98 | 1014.5 | |
| 20260507042548 | 53 | 0.0 | 0.0 | 0.00 | 0.12 | 0.08 | 98 | 1014.5 | |
| 20260507041541 | 53 | 0.0 | 0.0 | 0.00 | 0.12 | 0.08 | 98 | 1014.6 | |
| 20260507040535 | 53 | 253 | 1.0 | 2.0 | 0.00 | 0.12 | 0.08 | 98 | 1014.7 |
| 20260507035549 | 53 | 233 | 0.0 | 2.0 | 0.00 | 0.12 | 0.08 | 98 | 1014.5 |
| 20260507034522 | 53 | 0.0 | 0.0 | 0.02 | 0.12 | 0.08 | 98 | 1014.5 | |
| 20260507033536 | 53 | 0.0 | 0.0 | 0.03 | 0.12 | 0.08 | 98 | 1014.4 | |
| 20260507032549 | 53 | 0.0 | 0.0 | 0.03 | 0.12 | 0.08 | 98 | 1014.4 | |
| 20260507031522 | 53 | 281 | 0.0 | 1.0 | 0.03 | 0.12 | 0.08 | 98 | 1014.5 |
| 20260507030536 | 53 | 0.0 | 0.0 | 0.03 | 0.12 | 0.08 | 98 | 1014.5 | |
| 20260507025529 | 53 | 0.0 | 0.0 | 0.03 | 0.12 | 0.08 | 98 | 1014.5 | |
| 20260507024525 | 53 | 0.0 | 0.0 | 0.02 | 0.10 | 0.06 | 97 | 1014.5 | |
| 20260507023516 | 53 | 0.0 | 0.0 | 0.01 | 0.09 | 0.05 | 97 | 1014.3 | |
| 20260507022528 | 53 | 0.0 | 0.0 | 0.02 | 0.09 | 0.05 | 97 | 1014.5 | |
| 20260507021522 | 53 | 0.0 | 0.0 | 0.03 | 0.09 | 0.05 | 97 | 1014.5 | |
| 20260507020535 | 54 | 264 | 0.0 | 2.0 | 0.05 | 0.09 | 0.05 | 97 | 1014.5 |
| 20260507015528 | 54 | 0.0 | 0.0 | 0.05 | 0.09 | 0.05 | 96 | 1014.5 | |
| 20260507014522 | 54 | 0.0 | 0.0 | 0.04 | 0.08 | 0.04 | 96 | 1014.6 | |
| 20260507013537 | 54 | 0.0 | 0.0 | 0.04 | 0.08 | 0.04 | 96 | 1014.7 | |
| 20260507012529 | 54 | 0.0 | 0.0 | 0.03 | 0.07 | 0.03 | 95 | 1014.7 | |
| 20260507011522 | 54 | 205 | 1.0 | 2.0 | 0.02 | 0.06 | 0.02 | 94 | 1014.5 |
| 20260507010536 | 54 | 129 | 1.0 | 3.0 | 0.00 | 0.04 | 0.00 | 93 | 1014.6 |
| 20260507005531 | 54 | 135 | 0.0 | 3.0 | 0.00 | 0.04 | 0.00 | 93 | 1014.6 |
| 20260507004522 | 54 | 139 | 0.0 | 3.0 | 0.00 | 0.04 | 0.00 | 92 | 1014.7 |
| 20260507003518 | 54 | 104 | 0.0 | 3.0 | 0.00 | 0.04 | 0.00 | 92 | 1014.8 |
| 20260507002530 | 55 | 0.0 | 0.0 | 0.00 | 0.04 | 0.00 | 92 | 1014.7 | |
| 20260507001523 | 55 | 128 | 0.0 | 2.0 | 0.00 | 0.04 | 0.00 | 92 | 1014.7 |
| 20260507000536 | 55 | 112 | 0.0 | 6.0 | 0.00 | 0.04 | 0.00 | 91 | 1014.7 |
| 20260506235530 | 55 | 204 | 0.0 | 1.0 | 0.00 | 0.04 | 0.00 | 91 | 1014.8 |
| 20260506234523 | 55 | 204 | 1.0 | 4.0 | 0.00 | 0.04 | 0.00 | 90 | 1014.8 |
| 20260506233517 | 55 | 198 | 2.0 | 4.0 | 0.00 | 0.04 | 0.00 | 90 | 1014.8 |
| 20260506232533 | 55 | 169 | 2.0 | 3.0 | 0.00 | 0.04 | 0.00 | 90 | 1014.8 |
| 20260506231526 | 55 | 212 | 1.0 | 3.0 | 0.00 | 0.04 | 0.00 | 90 | 1014.8 |
| 20260506230518 | 55 | 138 | 2.0 | 7.0 | 0.00 | 0.04 | 0.00 | 90 | 1015.0 |
| 20260506225551 | 55 | 181 | 2.0 | 6.0 | 0.00 | 0.04 | 0.00 | 90 | 1014.9 |
| 20260506224525 | 55 | 200 | 1.0 | 6.0 | 0.00 | 0.04 | 0.00 | 89 | 1015.0 |
| 20260506223521 | 55 | 124 | 2.0 | 7.0 | 0.00 | 0.04 | 0.00 | 90 | 1014.9 |
| 20260506222532 | 56 | 183 | 1.0 | 4.0 | 0.00 | 0.04 | 0.00 | 89 | 1015.1 |
| 20260506221527 | 56 | 245 | 1.0 | 2.0 | 0.00 | 0.04 | 0.00 | 88 | 1015.0 |
| 20260506220557 | 56 | 159 | 1.0 | 6.0 | 0.00 | 0.04 | 0.00 | 88 | 1015.1 |
| 20260506215531 | 57 | 234 | 1.0 | 3.0 | 0.00 | 0.04 | 0.04 | 87 | 1015.1 |
| 20260506213518 | 57 | 146 | 2.0 | 7.0 | 0.00 | 0.04 | 0.04 | 86 | 1015.1 |
| 20260506212531 | 57 | 194 | 1.0 | 2.0 | 0.00 | 0.04 | 0.04 | 88 | 1015.0 |
| 20260506211525 | 56 | 208 | 0.0 | 2.0 | 0.00 | 0.04 | 0.04 | 89 | 1015.0 |
| 20260506210519 | 57 | 0.0 | 0.0 | 0.00 | 0.04 | 0.04 | 90 | 1015.0 | |
| 20260506205532 | 57 | 0.0 | 0.0 | 0.00 | 0.04 | 0.04 | 90 | 1015.1 | |
| 20260506204525 | 57 | 0.0 | 0.0 | 0.00 | 0.04 | 0.04 | 89 | 1015.2 | |
| 20260506203539 | 57 | 0.0 | 0.0 | 0.00 | 0.04 | 0.04 | 88 | 1015.3 | |
| 20260506202532 | 57 | 0.0 | 0.0 | 0.00 | 0.04 | 0.04 | 88 | 1015.3 | |
| 20260506201526 | 57 | 16 | 1.0 | 2.0 | 0.00 | 0.04 | 0.04 | 88 | 1015.2 |
| 20260506200517 | 57 | 55 | 0.0 | 2.0 | 0.00 | 0.04 | 0.04 | 87 | 1015.2 |
| 20260506195607 | 58 | 0.0 | 0.0 | 0.00 | 0.04 | 0.04 | 87 | 1015.2 | |
| 20260506194538 | 58 | 0.0 | 0.0 | 0.00 | 0.04 | 0.04 | 86 | 1015.1 | |
| 20260506193606 | 57 | 0.0 | 0.0 | 0.00 | 0.04 | 0.04 | 87 | 1015.0 | |
| 20260506192517 | 58 | 0.0 | 0.0 | 0.00 | 0.04 | 0.04 | 87 | 1014.9 | |
| 20260506191528 | 58 | 0.0 | 0.0 | 0.00 | 0.04 | 0.04 | 86 | 1014.8 | |
| 20260506190516 | 58 | 0.0 | 0.0 | 0.00 | 0.04 | 0.04 | 85 | 1014.6 | |
| 20260506185526 | 58 | 0.0 | 0.0 | 0.00 | 0.04 | 0.04 | 84 | 1014.6 | |
| 20260506184518 | 58 | 0.0 | 0.0 | 0.00 | 0.04 | 0.04 | 83 | 1014.6 | |
| 20260506183530 | 58 | 0.0 | 0.0 | 0.00 | 0.04 | 0.04 | 83 | 1014.5 | |
| 20260506182544 | 58 | 320 | 0.0 | 2.0 | 0.00 | 0.04 | 0.04 | 82 | 1014.4 |
| 20260506181517 | 58 | 324 | 0.0 | 2.0 | 0.00 | 0.04 | 0.04 | 83 | 1014.5 |
| 20260506180611 | 59 | 285 | 0.0 | 1.0 | 0.00 | 0.04 | 0.04 | 81 | 1014.4 |
| 20260506175524 | 59 | 262 | 0.0 | 2.0 | 0.00 | 0.04 | 0.04 | 80 | 1014.4 |
| 20260506174519 | 59 | 282 | 3.0 | 8.0 | 0.00 | 0.04 | 0.04 | 80 | 1014.4 |
| 20260506173531 | 60 | 264 | 2.0 | 7.0 | 0.00 | 0.04 | 0.04 | 79 | 1014.3 |
| 20260506172524 | 60 | 277 | 2.0 | 6.0 | 0.00 | 0.04 | 0.04 | 79 | 1014.2 |
| 20260506171535 | 60 | 263 | 2.0 | 4.0 | 0.00 | 0.04 | 0.04 | 79 | 1014.2 |
| 20260506170528 | 60 | 270 | 1.0 | 3.0 | 0.00 | 0.04 | 0.04 | 78 | 1014.2 |
| 20260506165520 | 61 | 266 | 2.0 | 4.0 | 0.00 | 0.04 | 0.04 | 77 | 1014.3 |
| 20260506164535 | 61 | 274 | 3.0 | 8.0 | 0.00 | 0.04 | 0.04 | 76 | 1014.3 |
| 20260506163527 | 61 | 257 | 2.0 | 9.0 | 0.00 | 0.04 | 0.04 | 74 | 1014.4 |
| 20260506162520 | 61 | 280 | 2.0 | 3.0 | 0.00 | 0.04 | 0.04 | 74 | 1014.4 |
| 20260506161536 | 61 | 264 | 2.0 | 4.0 | 0.00 | 0.04 | 0.04 | 74 | 1014.3 |
| 20260506160527 | 61 | 266 | 1.0 | 4.0 | 0.00 | 0.04 | 0.04 | 74 | 1014.3 |
| 20260506155520 | 61 | 276 | 2.0 | 4.0 | 0.00 | 0.04 | 0.04 | 74 | 1014.3 |
| 20260506154533 | 61 | 271 | 3.0 | 7.0 | 0.00 | 0.04 | 0.04 | 74 | 1014.4 |
| 20260506153520 | 61 | 258 | 2.0 | 6.0 | 0.00 | 0.04 | 0.04 | 73 | 1014.4 |
| 20260506152531 | 61 | 257 | 3.0 | 7.0 | 0.00 | 0.04 | 0.04 | 73 | 1014.3 |
| 20260506151519 | 61 | 242 | 3.0 | 8.0 | 0.00 | 0.04 | 0.04 | 74 | 1014.5 |
| 20260506150531 | 62 | 254 | 3.0 | 7.0 | 0.00 | 0.04 | 0.04 | 74 | 1014.7 |
| 20260506145521 | 62 | 243 | 3.0 | 10.0 | 0.00 | 0.04 | 0.04 | 72 | 1014.5 |
| 20260506144530 | 62 | 257 | 2.0 | 4.0 | 0.00 | 0.04 | 0.04 | 73 | 1014.4 |
| 20260506143520 | 62 | 228 | 3.0 | 7.0 | 0.00 | 0.04 | 0.04 | 73 | 1014.4 |
| 20260506142526 | 63 | 227 | 5.0 | 10.0 | 0.00 | 0.04 | 0.04 | 69 | 1014.4 |
| 20260506141534 | 63 | 231 | 6.0 | 11.0 | 0.00 | 0.04 | 0.04 | 67 | 1014.4 |
| 20260506140523 | 64 | 236 | 3.0 | 7.0 | 0.00 | 0.04 | 0.04 | 65 | 1014.5 |
| 20260506135530 | 64 | 267 | 4.0 | 13.0 | 0.00 | 0.04 | 0.04 | 64 | 1014.4 |
| 20260506134518 | 65 | 272 | 3.0 | 8.0 | 0.00 | 0.04 | 0.04 | 64 | 1014.3 |
| 20260506133527 | 65 | 225 | 4.0 | 7.0 | 0.00 | 0.04 | 0.04 | 64 | 1014.3 |
| 20260506132518 | 65 | 239 | 4.0 | 9.0 | 0.00 | 0.04 | 0.04 | 63 | 1014.3 |
| 20260506131527 | 66 | 249 | 1.0 | 3.0 | 0.00 | 0.04 | 0.04 | 64 | 1014.5 |
| 20260506130519 | 67 | 257 | 2.0 | 7.0 | 0.00 | 0.04 | 0.04 | 63 | 1014.5 |
| 20260506125533 | 67 | 221 | 4.0 | 9.0 | 0.00 | 0.04 | 0.04 | 60 | 1014.5 |
| 20260506124523 | 68 | 238 | 3.0 | 9.0 | 0.00 | 0.04 | 0.04 | 60 | 1014.6 |
| 20260506123516 | 66 | 235 | 3.0 | 8.0 | 0.00 | 0.04 | 0.04 | 61 | 1014.7 |
| 20260506122529 | 66 | 242 | 4.0 | 11.0 | 0.00 | 0.04 | 0.04 | 59 | 1014.5 |
| 20260506121522 | 67 | 225 | 3.0 | 9.0 | 0.00 | 0.04 | 0.04 | 60 | 1014.5 |
| 20260506120557 | 68 | 236 | 2.0 | 7.0 | 0.00 | 0.04 | 0.04 | 67 | 1014.5 |
| 20260506115547 | 68 | 221 | 3.0 | 6.0 | 0.00 | 0.04 | 0.04 | 66 | 1014.6 |
| 20260506114520 | 68 | 150 | 2.0 | 7.0 | 0.00 | 0.04 | 0.04 | 68 | 1014.6 |